Wetbulb
34.37 35.51 34.69 34.65 35.77 36.83 36.64 35.40 36.61 37.46 37.46 37.22 37.18 37.53 38.14 38.75 39.17 39.63 40.19 40.94 41.56 42.11 42.56 42.96 43.42 43.72 43.90
32.38 32.90 33.37 35.05 34.96 33.84 34.81 34.86 34.72 35.34 36.39 36.64 37.05 37.28 37.59 37.93 38.18 38.57 38.74 39.25 39.56 40.16 40.76 41.29 41.90 42.47 43.07
30.95 33.90 34.53 34.10 33.82 34.01 33.00 33.21 33.91 34.84 35.98 36.15 36.56 36.91 37.18 37.47 37.63 37.77 37.69 37.95 38.06 38.18 38.57 39.12 39.82 40.49 41.43
31.72 32.10 32.75 33.78 33.11 31.11 29.66 31.71 31.93 32.99 34.64 34.83 35.69 35.80 36.24 36.68 36.43 35.88 35.89 36.14 36.68 37.17 37.45 37.53 37.71 38.49 39.49
30.28 31.05 30.53 30.45 28.96 30.21 29.42 30.66 31.66 31.98 32.28 32.92 33.61 33.79 34.09 35.15 34.69 34.69 34.89 35.34 35.76 36.28 36.70 37.29 37.30 37.85 38.42
30.56 27.99 28.32 28.86 30.03 29.40 28.41 28.24 25.21 32.41 30.54 29.74 32.99 31.77 33.23 34.04 34.38 34.76 35.09 35.35 35.63 35.92 36.17 36.54 37.05 37.39 38.14
28.58 27.89 27.79 29.26 29.48 29.24 29.02 27.61 26.97 30.19 29.55 27.36 31.21 30.39 33.08 33.24 34.02 34.39 34.82 35.19 35.59 35.96 36.15 36.41 36.62 37.00 37.41
30.15 30.08 30.92 31.75 31.37 29.62 28.81 28.41 29.36 30.39 30.26 24.95 30.05 28.85 31.96 32.69 33.56 34.22 34.61 34.99 35.35 35.83 36.53 36.86 36.69 36.78 36.82
32.60 33.55 33.73 32.68 31.63 28.73 27.35 25.92 24.35 25.97 29.47 26.95 27.97 28.06 28.98 29.80 32.59 34.19 34.65 35.29 35.28 35.78 36.45 36.99 37.08 37.25 36.41
30.74 30.39 30.38 30.08 31.25 29.44 28.62 25.19 24.44 22.92 27.86 25.95 26.34 26.22 23.95 29.86 32.64 32.38 33.36 34.37 35.25 35.81 36.39 36.99 37.17 35.33 34.71
27.64 27.91 28.56 29.07 29.50 29.53 28.73 26.95 24.28 23.83 27.80 27.09 25.57 25.55 24.71 25.12 28.56 31.01 32.13 32.97 34.12 34.56 35.98 36.64 36.79 36.55 33.64
25.54 25.51 26.76 27.55 28.25 28.66 28.00 27.53 27.51 25.94 27.61 27.03 24.44 24.87 24.30 24.20 24.35 30.34 31.73 32.87 34.01 34.05 34.33 35.64 36.81 37.12 37.36
24.31 25.58 26.84 27.51 27.31 27.09 28.19 28.45 27.69 28.14 28.77 28.25 27.26 26.98 26.54 24.72 24.95 27.23 28.50 30.68 33.36 33.00 33.57 33.92 33.18 33.88 32.96
24.58 25.70 26.47 26.42 25.94 27.19 25.39 25.45 25.08 26.24 29.32 29.83 29.82 29.04 27.12 28.27 27.63 26.78 29.58 28.94 33.19 33.04 33.18 33.43 34.32 34.71 33.90
24.40 24.22 24.27 24.95 24.52 26.14 25.39 25.68 23.62 23.05 24.93 28.80 30.72 30.78 31.20 29.79 27.36 29.99 30.96 31.48 32.31 32.59 32.11 32.21 33.64 34.31 34.40
23.68 23.69 23.27 23.13 23.50 25.26 25.51 24.22 23.66 23.48 24.30 26.87 28.61 29.07 29.99 31.45 33.70 31.61 31.11 30.78 32.43 32.23 33.01 31.55 31.97 33.96 34.95
23.76 23.42 23.72 24.24 23.24 23.16 24.01 24.55 24.36 25.25 26.11 28.50 28.56 27.86 26.06 23.93 29.75 34.22 30.34 30.82 31.72 31.62 32.59 31.89 31.11 32.70 35.10
MSLP
1014.09 1013.92 1013.70 1013.25 1012.49 1012.01 1011.70 1011.36 1010.29 1009.60 1009.08 1008.59 1008.12 1007.52 1006.87 1006.12 1005.48 1004.92 1004.39 1003.88 1003.35 1002.90 1002.60 1002.19 1001.83 1001.60 1001.46
1013.73 1013.32 1012.97 1012.34 1011.92 1011.63 1011.01 1010.26 1009.41 1008.79 1008.19 1007.65 1007.00 1006.33 1005.67 1005.03 1004.41 1003.81 1003.26 1002.69 1002.30 1001.91 1001.45 1001.19 1000.71 1000.34 1000.07
1012.80 1012.61 1011.85 1011.91 1011.19 1010.62 1009.96 1009.40 1008.71 1008.14 1007.27 1006.70 1006.03 1005.22 1004.57 1003.90 1003.12 1002.45 1001.84 1001.37 1001.01 1000.71 1000.23 999.82 999.48 999.23 998.96
1012.92 1011.94 1011.64 1010.92 1010.55 1009.44 1008.80 1008.64 1007.84 1007.42 1006.39 1005.76 1004.86 1004.07 1003.43 1002.61 1001.89 1001.31 1000.81 1000.33 999.85 999.41 998.93 998.56 998.30 998.05 997.88
1012.74 1011.92 1011.09 1010.14 1009.65 1009.27 1008.53 1007.77 1007.03 1006.74 1005.27 1004.40 1003.65 1002.87 1002.07 1001.29 1000.62 1000.09 999.56 999.04 998.54 998.08 997.81 997.39 997.00 996.67 996.38
1012.39 1011.68 1010.73 1010.10 1009.61 1009.02 1008.36 1007.35 1005.95 1005.85 1004.76 1003.36 1003.20 1001.67 1000.86 1000.11 999.51 998.90 998.21 997.62 997.06 996.48 996.06 995.69 995.39 995.04 994.78
1011.80 1011.21 1010.44 1010.00 1009.79 1008.69 1007.81 1007.14 1005.98 1005.05 1004.62 1002.45 1002.23 1000.67 999.90 998.98 998.23 997.57 996.94 996.25 995.64 995.07 994.53 994.06 993.71 993.30 993.02
1011.46 1010.77 1010.27 1009.76 1009.20 1008.44 1007.56 1006.66 1005.41 1004.37 1004.05 1002.23 1001.31 1000.04 998.85 998.03 997.10 996.30 995.58 994.94 994.30 993.78 993.19 992.51 991.92 991.53 991.29
1010.86 1010.16 1009.47 1008.92 1008.56 1008.08 1007.10 1006.25 1004.76 1003.50 1003.03 1002.08 1000.51 999.59 998.53 996.59 995.77 994.85 994.28 993.58 992.96 992.18 991.55 991.10 990.64 990.13 989.56
1009.76 1009.10 1008.83 1008.28 1007.84 1007.43 1006.82 1006.01 1004.94 1003.27 1002.06 1001.69 1000.60 999.99 997.52 995.83 994.85 994.31 993.17 992.36 991.58 990.75 989.92 989.21 988.71 988.38 987.82
1009.25 1008.65 1008.13 1007.56 1007.05 1006.75 1006.40 1005.92 1004.85 1003.52 1001.95 1001.85 1000.44 999.73 999.01 996.40 994.36 993.35 992.51 991.26 990.37 989.35 988.43 987.53 986.93 986.65 985.95
1009.09 1008.42 1007.72 1007.11 1006.65 1006.23 1005.64 1005.08 1004.38 1003.28 1001.78 1001.59 1000.31 999.38 997.99 996.07 994.22 992.22 991.22 990.42 989.45 988.13 987.09 986.17 985.34 984.53 983.96
1008.95 1008.19 1007.60 1006.88 1006.24 1005.46 1004.55 1003.77 1002.93 1001.88 1000.99 1000.16 999.54 998.27 997.37 995.77 994.02 992.06 990.59 989.31 988.33 987.24 986.08 984.87 983.77 982.82 981.82
1008.59 1007.86 1007.19 1006.34 1005.46 1004.69 1003.79 1002.89 1001.88 1000.25 999.60 998.94 998.12 997.36 995.90 994.58 993.26 991.45 990.14 988.82 987.16 986.34 985.01 983.45 982.04 981.03 980.03
1008.31 1007.50 1006.68 1005.82 1004.88 1004.09 1003.25 1002.20 1001.26 999.89 998.41 997.51 996.82 995.97 994.77 993.75 992.05 990.48 989.16 987.79 986.76 985.59 984.27 982.37 980.60 979.63 978.60
1008.00 1007.18 1006.30 1005.47 1004.45 1003.38 1002.65 1001.80 1000.53 999.30 998.12 996.99 995.72 994.29 992.90 991.61 990.66 989.74 988.69 987.50 986.17 985.08 983.72 982.14 980.15 978.70 977.86
1007.59 1006.75 1005.92 1004.96 1004.09 1002.98 1001.98 1001.00 999.83 998.79 997.64 996.48 995.37 994.23 992.63 991.15 989.55 988.98 988.39 987.05 985.80 984.39 983.19 981.82 980.23 978.64 977.51
Wind_Speed
13 14 17 17 16 15 15 16 16 29 29 30 31 32 32 33 33 34 34 35 35 36 36 37 37 37 37
15 14 17 17 16 16 15 15 16 22 29 30 31 32 32 32 32 33 34 34 35 35 35 36 37 37 37
16 13 13 11 14 16 16 15 13 23 27 29 30 32 32 32 33 34 35 34 34 34 35 35 35 35 36
14 15 11 13 14 13 13 13 13 13 21 24 28 29 31 31 33 33 33 33 33 34 34 34 34 35 35
13 12 14 14 14 13 13 13 15 13 14 13 13 13 16 24 25 30 29 30 32 32 33 34 35 34 35
12 15 18 15 14 13 14 13 16 12 12 16 13 15 14 13 26 30 32 33 33 33 33 34 34 36 35
17 16 17 17 15 17 16 16 15 14 15 17 13 15 13 15 28 31 32 32 32 32 33 33 34 35 36
16 17 16 16 15 16 17 17 15 13 13 16 13 14 14 14 31 31 30 29 29 29 31 32 33 34 34
23 27 26 28 22 11 12 12 14 13 12 12 11 13 15 17 13 21 22 28 31 30 30 30 32 34 27
15 17 18 16 20 13 10 11 12 13 10 10 12 12 9 9 9 14 13 24 26 29 29 29 29 15 14
13 12 12 12 10 11 11 10 12 13 16 12 10 12 10 14 14 14 13 14 13 17 26 28 28 24 13
11 11 11 11 10 11 15 13 12 17 18 16 11 13 14 16 16 12 13 14 13 14 13 21 30 33 33
10 10 11 11 14 13 13 14 15 16 13 16 13 14 12 14 16 17 18 14 14 12 14 14 14 13 15
10 11 11 11 11 10 11 11 11 13 13 13 14 14 14 14 14 15 16 13 14 13 15 16 14 12 12
10 11 11 11 11 10 11 11 11 13 13 11 12 14 13 16 15 14 14 14 13 14 16 16 14 12 9
11 10 11 11 12 11 10 10 12 13 13 12 13 13 11 10 16 11 13 13 13 14 14 13 13 12 11
10 11 11 11 14 11 11 11 11 11 12 12 11 11 13 14 13 13 11 13 13 13 12 13 12 12 9
Wind_Direction
299 305 305 295 296 303 306 300 284 292 296 295 295 294 291 289 288 288 287 286 284 284 281 276 276 271 268
303 301 295 301 307 298 290 295 297 298 297 296 295 294 292 290 290 287 284 281 279 280 279 277 276 274 270
294 296 297 304 296 303 295 297 296 300 295 296 293 292 290 290 288 287 286 286 284 281 278 277 277 274 269
292 299 296 307 298 303 303 303 299 300 291 290 290 290 286 285 288 288 287 285 281 278 275 272 272 271 269
290 304 306 302 309 310 301 303 298 299 294 291 292 293 283 284 282 283 282 280 279 277 273 273 270 267 264
305 298 300 307 305 306 301 301 302 294 302 293 293 290 286 284 284 288 287 286 283 279 274 270 268 268 262
293 297 300 304 303 293 303 297 294 297 296 292 294 288 291 286 288 289 288 285 283 280 277 274 270 266 262
297 296 293 292 290 301 299 294 287 287 295 290 298 289 293 293 292 290 286 283 281 281 281 278 272 266 262
296 292 292 297 296 296 290 296 294 297 303 284 294 302 295 289 283 288 288 290 288 283 279 275 272 271 270
295 303 298 293 293 286 290 291 295 299 296 303 303 311 302 286 295 297 288 289 288 287 285 284 276 267 257
305 301 300 297 300 300 294 285 287 278 284 302 300 295 276 294 296 293 289 289 286 286 285 284 279 272 261
303 300 301 301 297 298 293 283 270 271 285 284 277 283 286 289 291 289 296 294 288 283 280 279 276 275 271
298 297 298 299 296 290 288 288 282 276 273 274 271 278 274 277 281 289 297 294 287 283 288 288 283 274 271
299 299 295 296 295 297 298 299 292 294 290 279 274 275 280 276 284 286 288 290 298 297 296 295 292 281 264
300 300 300 301 300 302 295 297 293 299 303 302 293 279 273 278 282 284 291 296 299 302 303 304 304 301 285
300 298 300 300 299 301 301 294 295 300 302 305 303 306 298 277 268 281 293 299 304 305 305 309 309 314 314
298 297 295 297 306 299 300 296 297 299 299 300 306 302 312 311 310 299 305 304 308 313 317 322 312 314 311